Aviation Digital Data Service (ADDS)

Output produced by METARs form (0606 UTC 25 June 2018)
found at http://www.aviationweather.gov/adds/metars/
 
OMAA 250600Z 31011KT 8000 NSC 35/22 Q1001 NOSIG
TAF OMAA 250500Z 2506/2612 31014KT 8000 NSC 
     BECMG 2517/2519 20005KT 
     PROB30 2601/2604 VRB02KT 4000 HZ 
     BECMG 2605/2607 32014KT
       
OMAA 250600Z 31011KT 8000 NSC 35/22 Q1001 NOSIG
TAF OMAA 250500Z 2506/2612 31014KT 8000 NSC 
     BECMG 2517/2519 20005KT 
     PROB30 2601/2604 VRB02KT 4000 HZ 
     BECMG 2605/2607 32014KT
       
OMAD 250600Z 33011KT CAVOK 35/21 Q1001 NOSIG
TAF OMAD 250500Z 2506/2612 31014KT CAVOK 
     BECMG 2517/2519 VRB02KT 
     BECMG 2605/2607 32013KT
       
OMAL 250600Z 34014KT 9000 NSC 35/15 Q1003 NOSIG
TAF OMAL 250500Z 2506/2612 33012KT 8000 NSC 
     PROB30 
     TEMPO 2509/2514 33020KT 4000 BLDU 
     BECMG 2517/2519 05004KT 
     BECMG 2605/2607 34012KT
       
OMDB 250600Z 23007KT 130V290 8000 NSC 35/22 Q1001 NOSIG
TAF OMDB 250501Z 2506/2612 28012KT 8000 NSC 
     BECMG 2518/2520 19006KT 
     BECMG 2606/2608 29013KT
       
OMDW 250600Z 29008KT 7000 NSC 34/21 Q1002 NOSIG
TAF OMDW 250501Z 2506/2612 30013KT 7000 NSC 
     BECMG 2518/2520 19007KT 
     PROB30 2601/2604 4000 HZ 
     BECMG 2607/2609 30012KT
       
OMFJ 250600Z 32007KT 280V010 CAVOK 43/03 Q0999 A2950 RWY11 30015KT
TAF OMFJ 250500Z 2506/2612 29010KT 7000 NSC 
     TEMPO 2506/2511 06010KT 
     BECMG 2514/2516 28015KT 
     PROB30 2516/2523 30020G35KT 5000 BLDU 
     BECMG 2604/2606 09010KT 
       
OMRK 250600Z 27006KT 230V350 8000 NSC 37/18 Q1001 A2956
TAF OMRK 250501Z 2506/2612 22005KT 8000 NSC 
     BECMG 2506/2508 29010KT 
     BECMG 2515/2517 21005KT 
     BECMG 2606/2608 28012KT
       
OMSJ 250600Z 24007KT 250V310 8000 NSC 36/18 Q1001
TAF OMSJ 250501Z 2506/2612 29012KT 8000 NSC 
     BECMG 2516/2518 18005KT 
     BECMG 2606/2608 29013KT
       
OMAL 250600Z 34014KT 9000 NSC 35/15 Q1003 NOSIG
TAF OMAL 250500Z 2506/2612 33012KT 8000 NSC 
     PROB30 
     TEMPO 2509/2514 33020KT 4000 BLDU 
     BECMG 2517/2519 05004KT 
     BECMG 2605/2607 34012KT
       
OMAD 250600Z 33011KT CAVOK 35/21 Q1001 NOSIG
TAF OMAD 250500Z 2506/2612 31014KT CAVOK 
     BECMG 2517/2519 VRB02KT 
     BECMG 2605/2607 32013KT
       
OMDB 250600Z 23007KT 130V290 8000 NSC 35/22 Q1001 NOSIG
TAF OMDB 250501Z 2506/2612 28012KT 8000 NSC 
     BECMG 2518/2520 19006KT 
     BECMG 2606/2608 29013KT
       
OMFJ 250600Z 32007KT 280V010 CAVOK 43/03 Q0999 A2950 RWY11 30015KT
TAF OMFJ 250500Z 2506/2612 29010KT 7000 NSC 
     TEMPO 2506/2511 06010KT 
     BECMG 2514/2516 28015KT 
     PROB30 2516/2523 30020G35KT 5000 BLDU 
     BECMG 2604/2606 09010KT 
       
OMRK 250600Z 27006KT 230V350 8000 NSC 37/18 Q1001 A2956
TAF OMRK 250501Z 2506/2612 22005KT 8000 NSC 
     BECMG 2506/2508 29010KT 
     BECMG 2515/2517 21005KT 
     BECMG 2606/2608 28012KT
       
OMAA 250600Z 31011KT 8000 NSC 35/22 Q1001 NOSIG
TAF OMAA 250500Z 2506/2612 31014KT 8000 NSC 
     BECMG 2517/2519 20005KT 
     PROB30 2601/2604 VRB02KT 4000 HZ 
     BECMG 2605/2607 32014KT
       
OMAD 250600Z 33011KT CAVOK 35/21 Q1001 NOSIG
TAF OMAD 250500Z 2506/2612 31014KT CAVOK 
     BECMG 2517/2519 VRB02KT 
     BECMG 2605/2607 32013KT
       
OMAL 250600Z 34014KT 9000 NSC 35/15 Q1003 NOSIG
TAF OMAL 250500Z 2506/2612 33012KT 8000 NSC 
     PROB30 
     TEMPO 2509/2514 33020KT 4000 BLDU 
     BECMG 2517/2519 05004KT 
     BECMG 2605/2607 34012KT
       
OMDB 250600Z 23007KT 130V290 8000 NSC 35/22 Q1001 NOSIG
TAF OMDB 250501Z 2506/2612 28012KT 8000 NSC 
     BECMG 2518/2520 19006KT 
     BECMG 2606/2608 29013KT
       
OMDW 250600Z 29008KT 7000 NSC 34/21 Q1002 NOSIG
TAF OMDW 250501Z 2506/2612 30013KT 7000 NSC 
     BECMG 2518/2520 19007KT 
     PROB30 2601/2604 4000 HZ 
     BECMG 2607/2609 30012KT
       
OMFJ 250600Z 32007KT 280V010 CAVOK 43/03 Q0999 A2950 RWY11 30015KT
TAF OMFJ 250500Z 2506/2612 29010KT 7000 NSC 
     TEMPO 2506/2511 06010KT 
     BECMG 2514/2516 28015KT 
     PROB30 2516/2523 30020G35KT 5000 BLDU 
     BECMG 2604/2606 09010KT 
       
OMRK 250600Z 27006KT 230V350 8000 NSC 37/18 Q1001 A2956
TAF OMRK 250501Z 2506/2612 22005KT 8000 NSC 
     BECMG 2506/2508 29010KT 
     BECMG 2515/2517 21005KT 
     BECMG 2606/2608 28012KT
       
OMSJ 250600Z 24007KT 250V310 8000 NSC 36/18 Q1001
TAF OMSJ 250501Z 2506/2612 29012KT 8000 NSC 
     BECMG 2516/2518 18005KT 
     BECMG 2606/2608 29013KT
       
OMSJ 250600Z 24007KT 250V310 8000 NSC 36/18 Q1001
TAF OMSJ 250501Z 2506/2612 29012KT 8000 NSC 
     BECMG 2516/2518 18005KT 
     BECMG 2606/2608 29013KT
       
OMAA 250600Z 31011KT 8000 NSC 35/22 Q1001 NOSIG
TAF OMAA 250500Z 2506/2612 31014KT 8000 NSC 
     BECMG 2517/2519 20005KT 
     PROB30 2601/2604 VRB02KT 4000 HZ 
     BECMG 2605/2607 32014KT
       
OMAD 250600Z 33011KT CAVOK 35/21 Q1001 NOSIG
TAF OMAD 250500Z 2506/2612 31014KT CAVOK 
     BECMG 2517/2519 VRB02KT 
     BECMG 2605/2607 32013KT
       
OMAL 250600Z 34014KT 9000 NSC 35/15 Q1003 NOSIG
TAF OMAL 250500Z 2506/2612 33012KT 8000 NSC 
     PROB30 
     TEMPO 2509/2514 33020KT 4000 BLDU 
     BECMG 2517/2519 05004KT 
     BECMG 2605/2607 34012KT
       
OMDB 250600Z 23007KT 130V290 8000 NSC 35/22 Q1001 NOSIG
TAF OMDB 250501Z 2506/2612 28012KT 8000 NSC 
     BECMG 2518/2520 19006KT 
     BECMG 2606/2608 29013KT
       
OMDW 250600Z 29008KT 7000 NSC 34/21 Q1002 NOSIG
TAF OMDW 250501Z 2506/2612 30013KT 7000 NSC 
     BECMG 2518/2520 19007KT 
     PROB30 2601/2604 4000 HZ 
     BECMG 2607/2609 30012KT
       
OMFJ 250600Z 32007KT 280V010 CAVOK 43/03 Q0999 A2950 RWY11 30015KT
TAF OMFJ 250500Z 2506/2612 29010KT 7000 NSC 
     TEMPO 2506/2511 06010KT 
     BECMG 2514/2516 28015KT 
     PROB30 2516/2523 30020G35KT 5000 BLDU 
     BECMG 2604/2606 09010KT 
       
OMRK 250600Z 27006KT 230V350 8000 NSC 37/18 Q1001 A2956
TAF OMRK 250501Z 2506/2612 22005KT 8000 NSC 
     BECMG 2506/2508 29010KT 
     BECMG 2515/2517 21005KT 
     BECMG 2606/2608 28012KT
       
OMSJ 250600Z 24007KT 250V310 8000 NSC 36/18 Q1001
TAF OMSJ 250501Z 2506/2612 29012KT 8000 NSC 
     BECMG 2516/2518 18005KT 
     BECMG 2606/2608 29013KT